OE5HCE Weather Reports


Display with metric or nautical units.
time (UTC)temp
F
wind
direction
speed
MPH
gust
MPH
rain 1hr
in
rain 24hr
in
rain mn
in
humidity
%
barometer
mb
20260906001556 64 235 0.0 0.0 0.00 0.20 0.00 73 1025.8
20260906000056 64 243 0.0 0.0 0.00 0.20 0.00 72 1025.7
20260905234611 64 227 0.0 0.0 0.00 0.20 0.00 71 1025.6
20260905233054 64 274 0.0 0.0 0.00 0.20 0.00 70 1025.7
20260905231555 64 265 0.0 0.0 0.00 0.20 0.00 68 1025.6
20260905230115 64 242 0.0 0.0 0.00 0.20 0.00 67 1025.4
20260905224614 64 233 0.0 0.0 0.00 0.20 0.00 69 1025.3
20260905223047 64 241 0.0 0.0 0.00 0.20 0.00 72 1025.1
20260905221543 64 244 0.0 0.0 0.00 0.20 0.00 75 1025.0
20260905220041 65 237 0.0 0.0 0.00 0.20 0.00 76 1024.9
20260905214539 65 246 0.0 0.0 0.00 0.20 0.20 76 1024.8
20260905213038 65 252 0.0 0.0 0.00 0.20 0.20 76 1024.6
20260905211538 64 254 0.0 0.0 0.00 0.20 0.20 76 1024.4
20260905210034 64 267 0.0 0.0 0.00 0.20 0.20 76 1024.1
20260905204534 64 250 0.0 0.0 0.00 0.20 0.20 75 1023.9
20260905203033 64 246 0.0 0.0 0.00 0.20 0.20 74 1024.0
20260905201532 65 254 0.0 0.0 0.00 0.20 0.20 73 1023.9
20260905200028 66 243 0.0 0.0 0.00 0.20 0.20 72 1023.7
20260905194528 66 241 0.0 0.0 0.00 0.20 0.20 70 1023.7
20260905193027 66 266 0.0 0.0 0.00 0.20 0.20 69 1023.6
20260905191526 66 261 0.0 0.0 0.00 0.20 0.20 67 1023.5
20260905190024 66 255 0.0 0.0 0.00 0.20 0.20 66 1023.4
20260905184524 66 253 0.0 0.0 0.00 0.20 0.20 66 1023.2
20260905183020 66 234 0.0 0.0 0.00 0.20 0.20 66 1023.1
20260905181518 67 244 0.0 0.0 0.00 0.20 0.20 66 1022.9
20260905180017 67 236 0.0 0.0 0.00 0.20 0.20 66 1022.7
20260905174514 68 240 0.0 0.0 0.00 0.20 0.20 64 1022.4
20260905173013 69 261 0.0 0.0 0.00 0.20 0.20 62 1022.2
20260905171516 70 229 0.0 0.0 0.00 0.20 0.20 60 1022.1
20260905170012 70 248 0.0 0.0 0.00 0.20 0.20 59 1022.1
20260905164518 71 173 0.0 0.0 0.00 0.20 0.20 59 1022.1
20260905163010 71 244 0.0 0.0 0.00 0.20 0.20 59 1021.9
20260905161509 72 236 0.0 0.0 0.00 0.20 0.20 59 1021.8
20260905160018 71 257 0.0 0.0 0.00 0.20 0.20 62 1021.8
20260905154508 71 277 0.0 0.0 0.00 0.20 0.20 62 1021.8
20260905153008 72 262 0.0 0.0 0.00 0.20 0.20 62 1021.9
20260905151507 72 244 0.0 0.0 0.00 0.20 0.20 60 1021.9
20260905150005 72 304 0.0 0.0 0.00 0.20 0.20 60 1021.7
20260905144505 72 238 0.0 0.0 0.00 0.20 0.20 60 1021.7
20260905143006 72 213 0.0 0.0 0.00 0.20 0.20 61 1021.7
20260905141506 72 228 0.0 0.0 0.00 0.20 0.20 61 1021.9
20260905140004 71 274 0.0 0.0 0.00 0.20 0.20 65 1021.9
20260905134503 71 246 0.0 0.0 0.00 0.20 0.20 64 1021.6
20260905133004 71 279 0.0 0.0 0.00 0.20 0.20 64 1021.5
20260905131502 71 232 0.0 0.0 0.00 0.20 0.20 65 1021.6
20260905130001 73 292 0.0 0.0 0.00 0.20 0.20 62 1021.8
20260905124501 73 250 0.0 0.0 0.00 0.20 0.20 64 1021.9
20260905123059 71 227 0.0 0.0 0.00 0.20 0.20 66 1022.0
20260905121603 71 247 0.0 0.0 0.00 0.20 0.20 66 1021.9
20260905114557 69 250 0.0 0.0 0.00 0.20 0.20 69 1022.0
20260905113107 70 224 0.0 0.0 0.01 0.20 0.20 67 1022.0
20260905111555 70 253 0.0 0.0 0.01 0.20 0.20 68 1022.0
20260905110055 70 217 0.0 0.0 0.01 0.20 0.20 70 1021.9
20260905104554 69 242 0.0 0.0 0.01 0.20 0.20 75 1021.8
20260905103056 67 281 0.0 0.0 0.00 0.19 0.19 72 1022.0
20260905101553 65 254 0.0 0.0 0.00 0.19 0.19 66 1022.1
20260905100057 65 256 0.0 0.0 0.00 0.19 0.19 45 1022.1
20260905094552 63 288 0.0 0.0 0.00 0.19 0.19 40 1022.2
20260905093054 62 242 0.0 115.0 0.00 0.19 0.19 36 1022.1
20260905091544 61 228 111.0 113.0 0.00 0.19 0.19 36 1022.1
20260905090041 60 247 113.0 115.0 0.00 0.19 0.19 37 1022.1
20260905084540 60 248 113.0 115.0 0.00 0.19 0.19 39 1022.4
20260905083038 59 251 114.0 115.0 0.02 0.19 0.19 41 1022.5
20260905081536 59 360 112.0 115.0 0.03 0.19 0.19 42 1022.2
20260905080040 59 224 111.0 115.0 0.05 0.19 0.19 44 1022.3
20260905074534 59 198 112.0 115.0 0.06 0.19 0.19 50 1022.2
20260905073033 59 270 114.0 116.0 0.09 0.17 0.17 53 1022.4
20260905071532 59 360 113.0 115.0 0.13 0.16 0.16 59 1022.1
20260905070034 59 261 114.0 116.0 0.13 0.14 0.14 68 1022.3
20260905064528 60 291 114.0 115.0 0.12 0.13 0.13 74 1021.6
20260905063022 61 295 114.0 115.0 0.07 0.08 0.08 78 1021.8
20260905061518 65 306 113.0 114.0 0.02 0.02 0.02 71 1021.7
20260905060014 66 261 0.0 0.0 0.00 0.01 0.01 67 1020.8
20260905054511 67 289 0.0 0.0 0.00 0.01 0.01 68 1020.2
20260905053009 67 311 0.0 0.0 0.00 0.01 0.01 70 1019.5
20260905051503 67 231 0.0 0.0 0.01 0.01 0.01 72 1019.0
20260905044557 68 252 0.0 0.0 0.01 0.01 0.01 73 1018.2
20260905043057 70 245 0.0 114.0 0.01 0.01 0.01 72 1017.6
20260905041548 71 236 0.0 0.0 0.00 0.00 0.00 73 1016.8
20260905040053 71 238 0.0 0.0 0.00 0.00 0.00 72 1016.3
20260905034543 71 262 0.0 0.0 0.00 0.00 0.00 72 1015.9
20260905033043 71 240 0.0 0.0 0.00 0.00 0.00 71 1015.8
20260905031547 72 250 0.0 0.0 0.00 0.00 0.00 70 1015.8
20260905030039 72 225 0.0 0.0 0.00 0.00 0.00 70 1016.0
20260905024538 72 273 0.0 0.0 0.00 0.00 0.00 70 1015.9
20260905023035 73 228 0.0 0.0 0.00 0.00 0.00 69 1015.7
20260905021533 75 252 0.0 0.0 0.00 0.00 0.00 63 1015.6
20260905020041 76 242 0.0 0.0 0.00 0.00 0.00 56 1015.4
20260905014523 76 248 0.0 0.0 0.00 0.00 0.00 53 1015.4
20260905013030 77 255 0.0 0.0 0.00 0.00 0.00 53 1015.3
20260905011531 77 247 0.0 0.0 0.00 0.00 0.00 53 1015.3
20260905010020 76 246 0.0 0.0 0.00 0.00 0.00 53 1015.2
20260905004517 77 241 0.0 0.0 0.00 0.00 0.00 53 1015.1
20260905003015 77 280 0.0 0.0 0.00 0.00 0.00 49 1014.8